Regional Weather Roundup
Issued by NWS

Home | Current Version | Previous Version | Text Only | Print | Product List | Glossary On
Versions: 1 2 3 4 5 6 7 8 9 10 11 12 13 14 15 16 17 18 19 20 21 22 23 24 25 26 27 28 29 30 31 32 33 34 35 36 37 38 39 40 41 42 43 44 45 46 47 48 49 50
000
ASUS45 KBOU 181510
RWRCO

WEATHER ROUNDUP FOR COLORADO
NATIONAL WEATHER SERVICE DENVER/BOULDER CO
800 AM MST SAT NOV 18 2017

NOTE: "FAIR" INDICATES FEW OR NO CLOUDS BELOW 12000 FEET WITH NO
SIGNIFICANT WEATHER AND/OR OBSTRUCTIONS TO VISIBILITY.

COZ001>005-013-030-031-181600-
...NORTHWEST COLORADO...

CITY           SKY/WX    TMP DP  RH WIND       PRES   REMARKS
CRAIG          FAIR       9   6  88 W3        30.42R
HAYDEN         FAIR      17  13  84 CALM      30.41R
MEEKER         FAIR       9   5  84 MISG      30.41R
RABBIT EARS PA CLOUDY   N/A N/A N/A W8G18     30.24R
STEAMBOAT SPGS CLOUDY    19  14  81 E3        30.38R
WALDEN         FAIR      14   7  73 SW12      30.31R WCI   0
$$

COZ006>008-011-181600-
...WEST CENTRAL VALLEYS...

CITY           SKY/WX    TMP DP  RH WIND       PRES   REMARKS
GRAND JUNCTION FAIR      27  19  72 CALM      30.44R
MONTROSE       FAIR      22  16  78 SE9       30.45R WCI  12
EAGLE          FAIR      16  11  80 E6        30.45R WCI   7
RIFLE          FAIR      17  13  84 S6        30.46R WCI   9
DELTA          FAIR      28  17  64 E7        30.45R WCI  20
NUCLA          FAIR      23  14  68 SE8       30.42R WCI  14
$$

COZ017>023-064>068-181600-
...SOUTHWEST COLORADO...

CITY           SKY/WX    TMP DP  RH WIND       PRES   REMARKS
DURANGO        FAIR      23  12  62 E8        30.31R WCI  14
CORTEZ         FAIR      27  13  55 CALM      30.33R
PAGOSA SPRINGS FAIR      27  15  61 CALM      30.30R
TELLURIDE      NOT AVBL
WOLF CREEK PAS FAIR      14 -11  31 N8        30.30R WCI   3
$$

COZ009-010-012-014-032>034-037-058>063-181600-
...CENTRAL COLORADO...

CITY           SKY/WX    TMP DP  RH WIND       PRES   REMARKS
ASPEN          FAIR      17  12  80 CALM      30.37R
BUENA VISTA    FAIR      21   7  53 NW29G47   30.23R WCI   3
COPPER MTN     FAIR       9   1  72 MISG      30.23R
BERTHOUD PASS  CLOUDY    -4 -13  65 N26G36    30.11R WCI -30
COTTONWOOD PAS FAIR      21   7  53 SE15      30.19R WCI   8
GUNNISON       FAIR      13   7  77 VRB6      30.38R WCI   4
KREMMLING      FAIR      27  12  54 CALM      30.39R
LEADVILLE      FAIR       4  -2  76 NE9       30.27R WCI -10
MONARCH PASS   CLOUDY     3   0  85 SW30G43   30.27R WCI -21
SALIDA         FAIR      23  13  64 W5        30.35R WCI  17
SUNLIGHT         N/A    N/A N/A N/A MISG      30.34R
WILKERSON PASS FAIR      14  -8  37 NW12G29   30.17R WCI   0
$$

COZ069>075-181600-
...SAN LUIS VALLEY/SANGRE DE CRISTO MOUNTAINS...

CITY           SKY/WX    TMP DP  RH WIND       PRES   REMARKS
ALAMOSA        FAIR      24   8  50 W6        30.29R WCI  17
DEL NORTE      FAIR      18   5  58 W10       30.28R WCI   6
LA VETA PASS   FAIR      16   3  57 SW28G33     N/A  WCI  -4
SAGUACHE       FAIR      23   9  54 NW14G23   30.29R WCI  11
$$

COZ035-036-038>040-181600-
...NORTHERN COLORADO FRONT RANGE...

CITY           SKY/WX    TMP DP  RH WIND       PRES   REMARKS
DENVER INTL AP FAIR      33  15  47 NE8       30.22R WCI  26
DMNS CITY PARK   N/A     34   5  29 MISG      30.23R
AURORA         MOSUNNY   27  16  64 S7        30.22R WCI  19
FRONT RANGE AP SUNNY     32  19  59 CALM      30.23R
ERIE MUNI ARPT FAIR      31  18  57 S6        30.26F WCI  25
BOULDER MUN AP FAIR      32  18  55 CALM      30.20S
CENTENNIAL     FAIR      26  18  71 S6        30.22R WCI  19
BROOMFIELD     SUNNY     32   9  37 W12       30.20R WCI  23
FORT COLLINS   FAIR      30  15  53 CALM      30.21R
LONGMONT       FAIR      33  21  61 E6        30.22S WCI  27
$$

COZ041-046-047-076>085-087-088-181600-
...PIKES PEAK/PALMER DIVIDE AND SOUTHERN FOOTHILLS...

CITY           SKY/WX    TMP DP  RH WIND       PRES   REMARKS
COLO. SPRINGS  FAIR      30  13  49 N6        30.22R WCI  24
A. F. ACADEMY  FAIR      22  15  71 NE8       30.20R WCI  13
SCHRIEVER AFB  FAIR      29  13  49 N9        30.22R WCI  21
CHEYENNE MTN   FAIR      26  13  58 CALM      30.15R
ELLICOTT       NOT AVBL
FALCON         FAIR      26  14  60 NW8       30.21R WCI  17
FORT CARSON    FAIR      29  20  67 CALM      30.21R
LIMON          FAIR      26  20  77 NW13      30.23R WCI  15
MONUMENT HILL  FAIR      19  14  79 W3        30.22R
CANON CITY     FAIR      34  12  40 W17       30.23S WCI  23
WALSENBURG     FAIR      30  21  69 CALM      30.26R
TRINIDAD       FAIR      31  25  78 CALM      30.28R
$$

COZ042>045-048>051-090-091-181600-
...NORTHEAST COLORADO...

CITY           SKY/WX    TMP DP  RH WIND       PRES   REMARKS
GREELEY ARPT   FAIR      31  16  54 N15       30.21R WCI  20
AKRON          FAIR      31  19  61 NW20G29   30.22R WCI  19
BURLINGTON     FAIR      35  21  56 NW18G29   30.21R WCI  24
WRAY           NOT AVBL
YUMA           FAIR      30  23  74 W10       30.22R WCI  21
STERLING       FAIR      32  23  69 NW9       30.23R WCI  24
HOLYOKE        FAIR      37  21  52 NW17G30   30.19R
FORT MORGAN    FAIR      33  13  44 NW23      30.24R WCI  20
$$

COZ086-089-092>099-181600-
...SOUTHEAST COLORADO...

CITY           SKY/WX    TMP DP  RH WIND       PRES   REMARKS
PUEBLO         FAIR      34  24  67 S6        30.26R WCI  29
LA JUNTA       FAIR      37  23  56 N12       30.26R
LAMAR          FAIR      40  17  39 N24G30    30.22R
SPRINGFIELD      N/A     35  24  64 N25G36    30.20R WCI  23
$$



USA.gov is the U.S. government's official web portal to all federal, state and local government web resources and services.